Retour au catalogue

S-Net A

S-NET A

ActifRadio amateurSSO
NORAD 43188·PAYLOAD·🇩🇪 Germany

Lancé Feb 1, 2018 depuis Vostochny Cosmodrome

Loading…

Prochains Passages (prochaines 24 heures)

TLE

FraisSource: AMSAT

Époque: Sep 13, 2026, 23:28 UTC

1 43188U 18014J   26256.97833205  .00003858  00000-0  19633-3 0  9995
2 43188  97.5270 161.4238 0010324  70.5745 289.6603 15.17380312472221

Suivez S-Net A en temps réel avec AllMySat

Download on the App Store